Wind_Speed
24 23 22 21 21 20 19 20 20 20 20 20 21 22 23 23 24 25 26 27 28 29 30 31 32 33 34 34 35 35 35 35 35 36 36 36 37 37 38 38 38 38 37
25 24 23 22 21 20 20 21 21 21 20 21 22 22 23 24 25 26 27 28 29 30 31 32 33 33 34 35 35 36 36 36 36 37 37 37 38 38 38 38 38 38 38
25 24 23 23 22 21 21 21 21 21 21 22 22 23 24 25 27 27 28 29 30 31 32 33 34 34 35 36 36 36 37 37 37 38 38 39 39 40 40 40 39 39 39
26 25 24 23 23 22 22 22 22 22 22 22 23 24 25 26 27 28 29 30 31 32 33 34 35 36 36 37 37 37 38 38 39 39 39 40 41 41 41 41 41 41 41
26 25 24 24 23 23 23 23 22 23 23 23 24 25 26 27 28 29 30 31 32 33 34 35 36 36 37 38 38 39 39 39 40 40 41 42 42 42 42 42 42 43 43
27 25 24 24 24 23 23 23 23 23 23 24 25 26 27 28 29 30 31 32 33 34 35 36 36 37 38 39 40 40 40 41 41 42 43 43 44 44 44 44 44 45 45
27 26 25 25 24 24 23 24 24 24 25 25 26 27 28 29 30 31 32 33 34 35 36 36 37 38 39 40 41 41 42 42 43 43 44 44 45 45 45 46 46 47 48
28 28 27 26 25 25 24 25 25 26 26 27 28 29 29 30 31 31 33 34 35 35 36 37 38 39 40 41 42 43 43 43 44 45 46 46 47 47 47 48 49 50 51
30 29 28 27 26 26 26 26 27 27 28 29 29 30 30 30 31 32 33 34 35 36 37 38 39 40 41 42 43 43 44 44 46 47 47 48 49 50 51 52 53 53 54
30 30 29 28 27 27 27 28 29 29 29 29 30 31 31 32 32 33 34 35 36 37 38 39 40 41 42 43 44 45 45 46 47 48 49 51 52 52 53 55 56 56 57
31 30 30 29 29 29 29 29 29 30 30 30 31 32 32 32 34 34 34 35 36 37 39 40 41 42 43 44 45 46 47 48 49 50 51 53 54 55 56 57 58 59 60
32 31 31 30 29 29 30 30 30 30 31 32 32 32 33 33 34 35 36 36 37 38 40 41 42 43 44 45 46 47 48 50 51 52 54 55 56 57 59 59 60 61 62
33 32 32 31 30 30 31 31 31 31 32 32 33 33 34 34 35 36 37 37 38 39 40 42 43 44 45 46 47 48 50 51 53 55 56 57 58 59 60 60 62 63 63
34 34 33 32 31 31 31 31 31 32 33 33 33 34 34 35 36 36 38 38 39 40 41 42 44 45 46 47 48 50 52 54 55 56 57 58 59 60 61 63 64 63 62
36 35 34 34 33 32 32 32 32 33 33 34 34 34 35 36 36 37 38 39 41 41 41 43 44 45 46 48 50 51 53 55 56 57 58 59 61 62 63 64 63 63 62
37 36 36 35 34 33 33 33 33 34 34 34 35 35 35 36 37 38 39 40 41 42 42 43 45 46 47 49 51 53 55 56 57 58 59 61 62 63 64 63 62 62 61
38 37 37 35 35 34 34 34 34 35 35 35 35 36 36 37 37 38 40 41 42 43 43 44 45 47 48 50 52 54 55 57 59 60 61 62 63 63 62 62 62 61 61
39 38 38 37 36 35 35 35 35 35 36 36 36 36 36 37 38 39 40 41 42 43 44 44 46 48 49 51 53 55 57 58 60 61 62 63 63 62 61 61 61 61 60
39 39 39 38 36 36 36 36 35 36 36 36 36 36 37 37 38 40 41 42 43 44 44 45 46 48 50 52 54 56 58 60 61 62 63 63 62 61 61 61 61 60 59
41 40 39 38 37 36 36 36 36 36 36 36 36 37 37 38 39 40 41 42 43 43 45 46 47 49 51 54 55 57 59 60 61 62 61 61 60 60 60 60 59 58 57
42 41 40 38 37 36 36 36 35 35 35 36 36 37 37 38 39 40 40 41 42 43 45 46 47 50 52 55 56 58 59 59 60 60 59 59 59 59 58 58 58 56 55
42 42 41 39 37 36 36 36 36 35 35 36 36 36 37 38 39 39 40 41 42 44 45 47 48 51 53 55 56 57 58 59 59 58 57 57 57 57 57 57 56 55 54
42 41 39 38 37 37 36 36 36 36 36 36 36 36 37 37 38 39 40 41 42 44 45 47 50 52 53 54 56 57 57 58 57 56 55 55 56 56 56 55 54 53 53
40 38 37 37 37 36 36 36 36 36 35 35 35 36 36 36 38 39 39 41 42 44 46 48 50 52 53 54 55 56 56 56 55 54 54 54 55 55 54 54 53 52 50
38 37 37 37 36 35 35 35 35 35 34 35 35 35 35 36 37 38 39 41 42 44 46 48 50 52 53 55 55 55 54 54 53 53 53 54 54 54 53 52 52 50 47
37 37 37 36 35 35 34 34 34 34 34 34 34 34 35 36 37 38 39 40 41 43 46 49 51 52 53 54 53 53 53 52 52 52 53 53 53 53 52 51 50 47 45
Wind_Direction
242 246 250 254 259 263 267 272 278 282 285 290 294 299 302 306 308 310 311 313 314 314 315 316 317 317 317 317 316 316 315 315 315 314 314 314 314 313 311 310 308 307 305
244 248 251 255 260 263 267 273 278 281 285 289 293 298 302 305 308 310 311 312 313 314 315 316 317 317 317 316 316 315 315 315 315 314 314 314 314 313 312 311 309 308 306
245 249 252 256 259 263 268 273 277 280 284 289 293 297 301 305 307 309 310 311 312 314 314 315 316 316 316 316 316 315 314 314 314 314 314 313 313 313 312 310 309 308 307
246 249 251 255 257 262 268 273 276 280 284 289 293 297 301 303 306 308 310 310 311 313 314 314 315 315 315 315 315 315 314 314 314 313 313 313 313 312 311 310 308 307 306
246 249 251 254 258 262 268 272 276 280 284 288 293 297 300 302 304 307 309 310 310 311 313 313 314 314 315 315 314 314 314 314 314 313 313 313 313 312 311 309 308 307 305
245 248 250 254 259 263 268 271 275 280 284 288 292 296 299 301 303 306 308 308 309 310 312 312 313 313 314 314 314 314 314 314 313 313 313 313 312 311 310 309 307 306 305
244 248 250 253 258 263 267 271 275 280 284 288 292 296 298 300 302 304 306 307 308 309 311 312 312 312 313 313 314 314 313 313 313 313 313 312 312 311 309 308 307 306 305
244 248 250 254 259 263 266 270 275 280 285 288 291 294 296 298 301 303 305 307 307 308 310 310 311 311 312 313 313 313 313 313 312 312 312 312 311 310 309 308 307 306 305
245 247 251 255 260 263 267 271 275 280 284 287 290 293 295 297 299 302 304 306 307 308 308 309 310 310 311 312 312 312 312 312 312 312 312 312 311 310 309 308 307 306 305
244 247 252 256 260 264 267 272 276 280 284 286 290 292 294 296 298 301 303 304 306 306 307 308 309 310 311 311 311 312 312 312 312 312 312 311 311 310 309 308 307 306 305
244 247 251 256 260 264 268 272 276 279 283 286 289 291 293 296 298 300 302 303 304 305 306 307 309 309 310 311 311 311 312 312 312 312 312 311 311 310 309 308 308 307 306
244 248 252 256 260 265 269 272 275 278 282 285 288 290 292 295 298 300 302 303 304 305 306 307 308 309 310 311 311 311 312 312 312 312 312 311 310 310 310 309 309 308 307
245 249 252 255 260 265 268 272 274 277 281 284 287 289 292 294 297 300 301 303 304 305 306 306 308 309 310 310 311 311 311 312 312 312 311 311 311 311 311 310 310 309 308
245 249 252 255 260 265 268 271 274 277 280 283 286 288 291 294 297 299 301 302 304 305 305 306 308 309 310 310 311 311 312 312 312 312 312 312 312 312 311 311 311 310 309
245 249 252 255 259 264 267 271 274 277 280 282 285 288 291 293 296 298 300 302 303 304 306 306 307 309 309 310 311 311 312 312 313 313 312 312 312 312 312 312 312 311 309
246 249 252 255 259 264 267 271 274 277 279 281 284 287 290 292 295 298 300 302 303 304 306 306 307 308 309 310 311 312 312 313 313 313 313 313 313 312 313 313 312 311 311
247 249 252 256 260 263 267 271 274 276 278 280 284 286 289 292 295 298 300 301 302 304 305 306 307 308 310 311 312 312 313 313 313 313 313 314 313 313 313 313 313 312 312
247 250 253 256 260 263 267 270 273 275 277 280 283 286 289 292 295 297 299 301 302 304 305 306 308 309 310 311 312 312 313 313 314 314 314 314 314 314 314 314 314 313 313
247 250 253 256 260 263 266 269 271 274 277 279 283 286 289 291 294 296 298 300 302 304 305 307 308 310 311 312 313 313 313 314 315 315 315 315 315 315 315 315 315 315 314
246 250 253 256 260 263 266 268 271 273 276 278 282 285 288 290 293 295 298 300 302 303 305 307 309 310 312 313 313 314 314 314 315 315 316 316 316 316 316 316 316 316 315
245 248 252 255 259 263 265 268 270 273 276 278 281 285 287 290 293 295 297 300 301 304 306 308 309 311 313 314 314 315 315 316 317 317 317 317 317 317 317 318 318 317 317
244 247 250 254 258 261 264 267 270 272 275 278 282 284 287 290 293 295 298 300 302 305 307 308 311 313 314 314 315 316 317 318 317 317 317 318 318 318 319 319 319 319 319
244 247 249 253 256 259 263 266 269 272 275 278 281 284 286 288 292 296 298 300 303 305 307 310 311 313 314 316 317 318 319 319 319 319 319 320 320 320 320 320 320 320 321
243 246 249 252 255 259 262 265 268 271 274 277 280 283 286 289 293 296 298 301 303 305 308 311 313 314 316 317 318 319 320 321 321 321 322 322 322 322 321 321 321 322 322
242 246 249 252 254 257 261 263 266 270 273 277 280 283 286 290 293 295 298 301 304 307 310 312 313 315 317 318 319 320 321 321 322 322 323 323 323 323 322 322 322 323 323
240 244 248 251 254 256 259 263 266 269 273 277 280 283 287 290 293 296 299 302 305 308 311 313 315 316 317 319 320 321 321 321 322 323 324 324 324 324 323 323 323 323 323
Height
5835 5837 5838 5839 5839 5840 5840 5839 5839 5838 5837 5836 5835 5833 5831 5829 5826 5824 5821 5818 5815 5811 5808 5804 5800 5796 5792 5788 5784 5780 5776 5771 5767 5763 5758 5754 5750 5745 5741 5737 5732 5728 5724
5831 5832 5833 5834 5835 5835 5835 5835 5834 5834 5833 5832 5830 5828 5826 5824 5821 5819 5816 5813 5809 5806 5802 5798 5795 5791 5787 5782 5778 5774 5769 5765 5761 5756 5752 5747 5743 5738 5734 5729 5725 5721 5717
5825 5827 5828 5829 5830 5830 5830 5830 5830 5829 5828 5827 5825 5824 5821 5819 5816 5814 5811 5807 5804 5801 5797 5793 5789 5785 5781 5776 5772 5768 5763 5759 5754 5750 5745 5741 5736 5731 5727 5722 5717 5713 5709
5820 5822 5823 5824 5825 5825 5825 5825 5825 5824 5823 5822 5820 5818 5816 5814 5811 5808 5805 5802 5798 5795 5791 5787 5783 5779 5775 5770 5766 5761 5757 5752 5748 5743 5738 5733 5729 5724 5719 5714 5710 5705 5701
5815 5816 5817 5818 5819 5820 5820 5820 5820 5819 5818 5817 5815 5813 5811 5809 5806 5803 5800 5796 5793 5789 5785 5781 5777 5773 5768 5764 5759 5755 5750 5745 5741 5736 5731 5726 5721 5716 5711 5706 5701 5697 5692
5809 5810 5812 5813 5814 5814 5815 5814 5814 5814 5813 5811 5810 5808 5806 5803 5800 5797 5794 5790 5787 5783 5779 5775 5771 5766 5762 5757 5753 5748 5743 5738 5733 5728 5723 5718 5713 5707 5702 5697 5692 5687 5682
5803 5805 5806 5807 5808 5809 5809 5809 5809 5808 5807 5806 5804 5802 5800 5797 5794 5791 5788 5784 5781 5777 5773 5769 5764 5760 5755 5750 5745 5740 5735 5730 5725 5720 5715 5710 5704 5699 5693 5688 5682 5677 5672
5797 5799 5800 5801 5802 5803 5803 5804 5803 5802 5801 5800 5799 5796 5794 5792 5788 5785 5782 5778 5774 5770 5766 5762 5758 5753 5748 5743 5738 5733 5728 5722 5717 5712 5706 5701 5695 5689 5684 5678 5672 5666 5660
5791 5793 5794 5795 5796 5797 5797 5798 5797 5796 5795 5794 5792 5791 5788 5786 5783 5779 5775 5772 5768 5764 5760 5755 5751 5746 5741 5736 5731 5725 5720 5714 5709 5703 5697 5691 5685 5679 5673 5667 5660 5654 5648
5784 5786 5788 5789 5790 5791 5791 5791 5791 5790 5789 5788 5786 5784 5782 5779 5777 5773 5770 5765 5761 5757 5753 5748 5743 5738 5733 5728 5723 5717 5711 5706 5700 5694 5688 5681 5675 5668 5661 5655 5648 5641 5634
5778 5780 5781 5783 5784 5784 5785 5785 5784 5783 5782 5781 5779 5777 5775 5772 5769 5766 5763 5759 5755 5750 5746 5741 5736 5731 5725 5720 5714 5708 5703 5696 5690 5684 5677 5671 5664 5656 5649 5642 5635 5627 5620
5771 5773 5775 5776 5777 5778 5778 5778 5777 5776 5775 5774 5772 5770 5768 5765 5762 5759 5756 5752 5748 5744 5738 5733 5728 5723 5717 5712 5706 5700 5693 5687 5680 5674 5666 5659 5652 5644 5636 5628 5621 5613 5605
5764 5766 5768 5769 5770 5771 5771 5771 5771 5770 5768 5767 5765 5763 5761 5758 5755 5752 5748 5745 5741 5736 5731 5726 5720 5715 5709 5703 5697 5691 5684 5677 5670 5663 5655 5647 5639 5631 5623 5615 5606 5598 5590
5756 5758 5760 5762 5763 5763 5763 5763 5763 5762 5761 5759 5757 5755 5753 5750 5747 5744 5741 5737 5733 5729 5724 5718 5712 5706 5701 5694 5688 5681 5674 5667 5659 5651 5643 5635 5627 5618 5610 5601 5592 5583 5574
5748 5750 5752 5754 5755 5756 5756 5756 5756 5755 5753 5752 5750 5748 5746 5743 5740 5736 5733 5729 5725 5721 5716 5710 5705 5698 5692 5686 5679 5672 5664 5656 5648 5640 5631 5623 5614 5605 5596 5586 5577 5568 5559
5739 5742 5744 5746 5747 5748 5748 5748 5748 5747 5746 5744 5742 5740 5738 5735 5732 5728 5725 5721 5716 5712 5708 5702 5696 5690 5683 5676 5669 5661 5653 5645 5637 5628 5619 5610 5601 5591 5582 5572 5563 5554 5545
5731 5734 5736 5737 5739 5740 5740 5740 5740 5739 5738 5736 5734 5732 5730 5727 5724 5720 5717 5712 5708 5703 5699 5693 5687 5681 5674 5667 5659 5651 5643 5634 5625 5616 5607 5597 5588 5578 5568 5559 5549 5540 5531
5722 5725 5727 5729 5731 5731 5732 5732 5732 5731 5730 5728 5726 5724 5722 5719 5716 5712 5708 5704 5699 5695 5690 5685 5678 5671 5664 5657 5649 5641 5632 5623 5614 5604 5594 5584 5574 5565 5555 5545 5536 5526 5517
5713 5716 5718 5720 5722 5723 5724 5724 5723 5723 5721 5720 5718 5716 5714 5711 5708 5704 5700 5695 5691 5686 5681 5675 5669 5662 5655 5647 5639 5630 5620 5611 5601 5591 5581 5571 5561 5552 5542 5532 5523 5513 5504
5704 5707 5709 5711 5713 5714 5715 5715 5715 5714 5713 5712 5710 5708 5706 5703 5699 5695 5691 5687 5682 5677 5672 5666 5660 5652 5645 5637 5628 5619 5610 5599 5590 5579 5568 5558 5549 5539 5529 5520 5511 5501 5491
5695 5698 5700 5702 5704 5705 5706 5706 5706 5706 5704 5703 5702 5700 5697 5694 5690 5687 5683 5678 5673 5668 5663 5657 5650 5643 5635 5626 5618 5608 5599 5589 5578 5567 5557 5546 5537 5527 5517 5508 5498 5489 5480
5685 5688 5691 5693 5695 5696 5697 5698 5697 5697 5696 5695 5693 5691 5688 5685 5682 5678 5674 5669 5665 5660 5654 5648 5641 5633 5625 5616 5607 5597 5587 5578 5569 5559 5548 5537 5526 5516 5506 5497 5487 5478 5469
5675 5678 5681 5684 5686 5687 5688 5688 5688 5688 5687 5686 5684 5682 5680 5677 5673 5670 5665 5661 5656 5650 5645 5639 5631 5623 5615 5607 5598 5588 5577 5566 5556 5546 5536 5527 5516 5506 5496 5486 5477 5468 5459
5665 5669 5672 5674 5677 5678 5679 5679 5679 5679 5678 5677 5675 5673 5671 5668 5664 5661 5657 5652 5647 5641 5636 5629 5622 5613 5604 5595 5586 5577 5566 5556 5545 5535 5526 5517 5506 5497 5486 5476 5466 5458 5449
5656 5660 5663 5665 5667 5669 5670 5670 5670 5670 5669 5668 5667 5665 5662 5659 5656 5652 5648 5644 5639 5633 5626 5619 5611 5603 5594 5585 5576 5567 5557 5547 5538 5527 5517 5507 5498 5488 5478 5467 5457 5449 5440
5647 5650 5653 5656 5658 5660 5661 5661 5661 5661 5661 5660 5658 5656 5654 5651 5647 5643 5640 5635 5630 5624 5617 5610 5602 5593 5584 5575 5566 5557 5548 5539 5529 5520 5509 5499 5489 5479 5471 5460 5450 5441 5432